リニア彗星

C/2005 A1 ( LINEAR )

English version
Home page
Updated on January 21, 2006

---------------------------------------------------------------------

・ プロフィール

発見日 2005年1月13日
発見光度 15.4等
発見者 Lincoln Laboratory Near-Earth Asteroid Research project

・ 写真集

・ 軌道要素

The following orbital elements are taken from MPC 54364:

Epoch 2005 Apr. 20.0 TT = JDT 2453480.5
T 2005 Apr. 10.2253 TT                                  MPC
q   0.906885             (2000.0)            P               Q
z  -0.000666       Peri.  271.8646      +0.0136396      +0.9974749
 +/-0.000004       Node   355.8599      +0.1431939      -0.0709349
e   1.000604       Incl.   74.8865      -0.9896007      +0.0034840
From 221 observations 2004 Dec. 9-2005 June 18, mean residual 0".6.

・ 星図

・ 光度変化

        m1 = 8.2 + 5 logΔ + 12.5 log r  [   ,  0]  (              〜2005年 4月10日)
        m1 = 8.0 + 5 logΔ +  8.5 log r  [  0,120]  (2005年 4月10日〜2005年 8月 8日)
        m1 = 6.2 + 5 logΔ + 14.0 log r  [120,   ]  (2005年 8月 8日〜              )

---------------------------------------------------------------------

軌道要素はMPCのEphemerides and Orbital Elementsに掲載されたものです。
星図は StellaNavigator Ver.2.0 for Windows (アストロアーツ 編著 / アスキー出版局刊) で作成したものです。
光度グラフはComet for Windowsで作成したものです。

---------------------------------------------------------------------

Copyright(C) Seiichi Yoshida (comet@aerith.net). All rights reserved.